Beauty, KY

10:53 PM EDT on September 30, 2016 (GMT -0400)
Prestonsburg

Weather History for KK22 - January, 2013

Change the Weather History Date:

Sunday, January 20, 2013

  Actual Average (KJKL) Record (KJKL)
Temperature  
Mean Temperature 40 °F 35 °F  
Max Temperature 48 °F 43 °F 66 °F (1988)
Min Temperature 32 °F 27 °F -18 °F (1985)
Degree Days  
Heating Degree Days 25 30  
Month to date heating degree days 600  
Since 1 July heating degree days 2234  
Cooling Degree Days 0 0  
Month to date cooling degree days 0  
Year to date cooling degree days 0  
Moisture  
Dew Point 22 °F    
Average Humidity 44    
Maximum Humidity 65    
Minimum Humidity 31    
Precipitation  
Precipitation 0.00 in 0.12 in 0.50 in (2010)
Month to date precipitation 2.30  
Year to date precipitation 2.30  
Snow  
Snow 0.00 in 0.30 in 3.00 in (2001)
Month to date snowfall 4.4  
Since 1 July snowfall 9.9  
Snow Depth -    
Sea Level Pressure  
Sea Level Pressure 30.10 in    
Wind  
Wind Speed 10 mph (West)    
Max Wind Speed 16 mph    
Max Gust Speed 25 mph    
Visibility 10 miles    
Events      
T = Trace of Precipitation, MM = Missing Value Source: NWS Daily Summary

Daily Weather History Graph

Daily Weather History Graph

Search for Another Location

Airport or City:

Trip Planner

Search our weather history database for the weather conditions in past years. The results will help you decide how hot, cold, wet, or windy it might be!

Date:

Astronomy

Jan. 20, 2013 Rise Set
Actual Time 7:42 AM EST 5:41 PM EST
Civil Twilight 7:14 AM EST 6:09 PM EST
Nautical Twilight 6:42 AM EST 6:41 PM EST
Astronomical Twilight 6:10 AM EST 7:12 PM EST
Moon 12:41 PM EST (1/20) 2:14 AM EST (1/20)
Length of Visible Light 10h 55m
Length of Day
9h 58m
Waxing Gibbous, 66% of the Moon is Illuminated
Jan 20
Waxing Gibbous
Jan 26
Full
Feb 3
Last Quarter
Feb 10
New
Feb 17
First Quarter

Hourly Weather History & Observations

Time (EST) Temp. Windchill Dew Point Humidity Pressure Visibility Wind Dir Wind Speed Gust Speed Precip Events Conditions
12:15 AM 46.4 °F 40.1 °F 25.3 °F 44% 30.04 in 10.0 mi WSW 15.0 mph 24.2 mph N/A   Clear
12:35 AM 46.0 °F 39.6 °F 25.5 °F 45% 30.04 in 10.0 mi WSW 15.0 mph 25.3 mph N/A   Clear
12:55 AM 46.2 °F 40.1 °F 25.7 °F 45% 30.04 in 10.0 mi WSW 13.8 mph 19.6 mph N/A   Clear
1:15 AM 45.9 °F 39.1 °F 25.9 °F 46% 30.04 in 10.0 mi WSW 16.1 mph 25.3 mph N/A   Clear
1:35 AM 45.7 °F 40.2 °F 26.1 °F 46% 30.04 in 10.0 mi WSW 11.5 mph 23.0 mph N/A   Clear
1:55 AM 45.5 °F 39.9 °F 26.4 °F 47% 30.04 in 10.0 mi WSW 11.5 mph 18.4 mph N/A   Clear
2:15 AM 45.3 °F 40.1 °F 26.6 °F 48% 30.04 in 10.0 mi WSW 10.4 mph 18.4 mph N/A   Clear
2:35 AM 45.7 °F 39.1 °F 26.8 °F 48% 30.05 in 10.0 mi WSW 15.0 mph 23.0 mph N/A   Clear
2:55 AM 45.5 °F 40.3 °F 27.1 °F 49% 30.05 in 10.0 mi WSW 10.4 mph 19.6 mph N/A   Clear
3:15 AM 45.1 °F 39.1 °F 27.3 °F 50% 30.04 in 10.0 mi WSW 12.7 mph 17.3 mph N/A   Clear
3:35 AM 45.3 °F 40.6 °F 27.9 °F 51% 30.05 in 10.0 mi WSW 9.2 mph 17.3 mph N/A   Clear
3:55 AM 45.1 °F 39.1 °F 28.4 °F 52% 30.04 in 10.0 mi WSW 12.7 mph 18.4 mph N/A   Clear
4:15 AM 45.0 °F 39.7 °F 28.8 °F 53% 30.04 in 10.0 mi WSW 10.4 mph 18.4 mph N/A   Clear
4:35 AM 44.8 °F 38.3 °F 29.1 °F 54% 30.04 in 10.0 mi WSW 13.8 mph 21.9 mph N/A   Clear
4:55 AM 44.6 °F 38.4 °F 29.3 °F 55% 30.04 in 10.0 mi West 12.7 mph 19.6 mph N/A   Clear
5:15 AM 44.2 °F 38.4 °F 29.3 °F 56% 30.05 in 10.0 mi WSW 11.5 mph 16.1 mph N/A   Clear
5:35 AM 43.9 °F 38.3 °F 29.7 °F 57% 30.05 in 10.0 mi West 10.4 mph - N/A   Clear
5:55 AM 43.7 °F 37.3 °F 29.8 °F 58% 30.05 in 10.0 mi West 12.7 mph - N/A   Clear
6:15 AM 43.7 °F 39.1 °F 30.0 °F 59% 30.06 in 10.0 mi West 8.1 mph 19.6 mph N/A   Clear
6:35 AM 43.3 °F 37.7 °F 30.2 °F 60% 30.07 in 10.0 mi WSW 10.4 mph - N/A   Clear
6:55 AM 43.0 °F 37.2 °F 30.2 °F 61% 30.07 in 10.0 mi West 10.4 mph 16.1 mph N/A   Clear
7:15 AM 42.8 °F 37.5 °F 30.6 °F 62% 30.08 in 10.0 mi West 9.2 mph - N/A   Clear
7:35 AM 42.1 °F 36.6 °F 30.6 °F 64% 30.08 in 10.0 mi WSW 9.2 mph 17.3 mph N/A   Clear
7:55 AM 41.9 °F 37.5 °F 30.7 °F 65% 30.09 in 10.0 mi WSW 6.9 mph - N/A   Clear
8:15 AM 42.1 °F 37.7 °F 31.1 °F 65% 30.09 in 10.0 mi WSW 6.9 mph - N/A   Clear
8:35 AM 42.4 °F 37.5 °F 31.1 °F 64% 30.10 in 10.0 mi West 8.1 mph 18.4 mph N/A   Clear
8:55 AM 42.8 °F 36.6 °F 31.5 °F 64% 30.10 in 10.0 mi West 11.5 mph 16.1 mph N/A   Clear
9:15 AM 43.7 °F 39.1 °F 31.1 °F 61% 30.11 in 10.0 mi West 8.1 mph - N/A   Clear
9:35 AM 43.9 °F 38.8 °F 30.4 °F 59% 30.12 in 10.0 mi WSW 9.2 mph - N/A   Clear
9:55 AM 44.4 °F 39.5 °F 29.5 °F 56% 30.12 in 10.0 mi WNW 9.2 mph 16.1 mph N/A   Clear
10:15 AM 44.6 °F 40.7 °F 27.3 °F 51% 30.13 in 10.0 mi West 6.9 mph 20.7 mph N/A   Clear
10:35 AM 45.0 °F 39.3 °F 26.6 °F 49% 30.14 in 10.0 mi WNW 11.5 mph 17.3 mph N/A   Clear
10:55 AM 45.5 °F 40.3 °F 27.3 °F 49% 30.14 in 10.0 mi WNW 10.4 mph - N/A   Clear
11:15 AM 46.2 °F 41.7 °F 29.1 °F 51% 30.14 in 10.0 mi West 9.2 mph 16.1 mph N/A   Clear
11:35 AM 46.4 °F 41.9 °F 27.9 °F 48% 30.14 in 10.0 mi West 9.2 mph - N/A   Scattered Clouds
11:55 AM 46.9 °F - 24.4 °F 41% 30.14 in 10.0 mi NW 9.2 mph 16.1 mph N/A   Clear
12:15 PM 47.3 °F - 22.8 °F 38% 30.13 in 10.0 mi WNW 8.1 mph - N/A   Clear
12:35 PM 47.3 °F - 22.3 °F 37% 30.13 in 10.0 mi West 6.9 mph - N/A   Clear
12:55 PM 47.5 °F - 21.4 °F 36% 30.12 in 10.0 mi West 9.2 mph 19.6 mph N/A   Clear
1:15 PM 47.8 °F - 20.5 °F 34% 30.11 in 10.0 mi NW 10.4 mph 18.4 mph N/A   Clear
1:35 PM 48.0 °F - 22.3 °F 36% 30.10 in 10.0 mi NW 9.2 mph 16.1 mph N/A   Clear
1:55 PM 47.8 °F - 19.4 °F 32% 30.10 in 10.0 mi NW 9.2 mph 16.1 mph N/A   Clear
2:15 PM 47.7 °F - 20.1 °F 34% 30.11 in 10.0 mi West 10.4 mph 16.1 mph N/A   Clear
2:35 PM 47.5 °F - 18.7 °F 32% 30.11 in 10.0 mi West 12.7 mph 18.4 mph N/A   Clear
2:55 PM 47.7 °F - 18.3 °F 31% 30.11 in 10.0 mi West 11.5 mph 17.3 mph N/A   Clear
3:15 PM 48.0 °F - 19.6 °F 32% 30.12 in 10.0 mi West 6.9 mph - N/A   Clear
3:35 PM 47.3 °F - 18.5 °F 32% 30.11 in 10.0 mi West 8.1 mph - N/A   Clear
3:55 PM 46.8 °F - 20.1 °F 35% 30.11 in 10.0 mi NW 6.9 mph - N/A   Clear
4:15 PM 46.4 °F 41.1 °F 18.3 °F 33% 30.11 in 10.0 mi West 11.5 mph - N/A   Clear
4:35 PM 45.9 °F 43.6 °F 19.9 °F 36% 30.12 in 10.0 mi NW 4.6 mph - N/A   Clear
4:55 PM 45.5 °F 41.8 °F 18.1 °F 34% 30.12 in 10.0 mi WNW 6.9 mph - N/A   Clear
5:15 PM 44.4 °F 41.2 °F 17.4 °F 34% 30.12 in 10.0 mi NNW 5.8 mph - N/A   Clear
5:35 PM 43.2 °F 40.5 °F 17.2 °F 35% 30.12 in 10.0 mi NW 4.6 mph - N/A   Clear
5:55 PM 41.9 °F 40.0 °F 16.2 °F 35% 30.12 in 10.0 mi NW 3.5 mph - N/A   Clear
6:15 PM 41.2 °F 38.2 °F 14.2 °F 33% 30.13 in 10.0 mi NNW 4.6 mph - N/A   Clear
6:35 PM 40.5 °F - 12.9 °F 33% 30.13 in 10.0 mi Calm Calm - N/A   Clear
6:55 PM 39.4 °F - 13.1 °F 34% 30.13 in 10.0 mi Calm Calm - N/A   Clear
7:15 PM 38.3 °F 34.8 °F 12.7 °F 35% 30.14 in 10.0 mi North 4.6 mph - N/A   Clear
7:35 PM 38.3 °F 35.9 °F 10.4 °F 32% 30.14 in 10.0 mi NNW 3.5 mph - N/A   Clear
7:55 PM 37.6 °F 35.1 °F 9.9 °F 32% 30.14 in 10.0 mi NNW 3.5 mph - N/A   Clear
8:15 PM 37.4 °F 32.8 °F 9.3 °F 31% 30.15 in 10.0 mi NNW 5.8 mph - N/A   Clear
8:35 PM 36.7 °F 32.9 °F 8.8 °F 31% 30.14 in 10.0 mi NNW 4.6 mph - N/A   Clear
8:55 PM 36.5 °F 33.9 °F 8.2 °F 31% 30.14 in 10.0 mi NNW 3.5 mph - N/A   Clear
9:15 PM 35.8 °F 31.9 °F 8.2 °F 32% 30.14 in 10.0 mi NNW 4.6 mph - N/A   Clear
9:35 PM 35.2 °F - 8.4 °F 33% 30.14 in 10.0 mi Calm Calm - N/A   Clear
9:55 PM 34.7 °F - 8.6 °F 34% 30.15 in 10.0 mi Calm Calm - N/A   Clear
10:15 PM 34.7 °F - 8.6 °F 34% 30.14 in 10.0 mi Calm Calm - N/A   Clear
10:35 PM 34.0 °F - 8.6 °F 35% 30.14 in 10.0 mi Calm Calm - N/A   Clear
10:55 PM 34.0 °F - 8.6 °F 35% 30.14 in 10.0 mi Calm Calm - N/A   Clear
11:15 PM 32.2 °F - 8.8 °F 38% 30.14 in 10.0 mi Calm Calm - N/A   Clear
11:35 PM 32.9 °F - 9.3 °F 37% 30.13 in 10.0 mi Calm Calm - N/A   Clear
11:55 PM 32.0 °F - 10.2 °F 40% 30.13 in 10.0 mi Calm Calm - N/A   Clear